Meteo Giornale » Osservazioni meteo Belgio » Bruxelles National

ore: 14:50 - Osservazioni Meteo Bruxelles National
Lat. 50° 54' N Lon. 4° 32' E Alt. 55 metri s.l.m.

nuvoloso

22 °C

Nuvoloso

Temp. 24 Ore

15 °C

22 °C

Ovest

20.3 Km/h

Dew point 12 °C

Umidità 53 %

Visibilità  10 Km

Il sole sorge alle ore 06:55

Il sole tramonta alle ore 20:28

Data e Ora Cielo e Fenomeni T °C DP °C Um. % Pres. hPa Vis. km Vento km/h
Oggi h: 14:50 nuvoloso Nuvoloso 22 12 53 1021 10 O 20.3
Oggi h: 14:20 nuvoloso Nuvoloso 22 14 60 1021 10 O 11.1
Oggi h: 13:50 molto_nuvoloso Molto Nuvoloso 20 13 64 1021 10 O 14.8
Oggi h: 13:20 nuvoloso Nuvoloso 20 14 68 1021 10 O/SO 11.1
Oggi h: 12:50 nuvoloso Nuvoloso 19 16 82 1021 10 SO 9.3
Oggi h: 12:20 nuvoloso_piovaschi Pioggia 18 13 72 1021 10 O/SO 11.1
Oggi h: 11:50 molto_nuvoloso Molto Nuvoloso 20 14 68 1021 10 O/NO 7.4
Oggi h: 11:20 molto_nuvoloso Molto Nuvoloso 19 14 72 1021 10 O 9.3
Oggi h: 10:50 nuvoloso Nuvoloso 18 15 82 1021 10 O/SO 13
Oggi h: 10:20 molto_nuvoloso Molto Nuvoloso 17 15 88 1020 10 O/SO 14.8
Oggi h: 09:50 molto_nuvoloso Molto Nuvoloso 17 15 88 1020 10 O/SO 14.8
Oggi h: 09:20 molto_nuvoloso Molto Nuvoloso 17 15 88 1020 10 O/SO 14.8
Oggi h: 08:50 molto_nuvoloso Molto Nuvoloso 16 15 93 1020 10 O/SO 16.7
Oggi h: 08:20 molto_nuvoloso Molto Nuvoloso 16 15 93 1020 10 O/SO 16.7
Oggi h: 07:50 molto_nuvoloso Molto Nuvoloso 16 15 93 1019 10 SO 16.7
Oggi h: 07:20 nuvoloso Nuvoloso 16 15 93 1019 10 SO 14.8
Oggi h: 06:50 nuvoloso Nuvoloso 16 14 87 1019 10 SO 14.8
Oggi h: 06:20 nuvoloso Nuvoloso 15 14 93 1018 10 SO 14.8
Oggi h: 05:50 nuvoloso Nuvoloso 15 14 93 1018 10 SO 14.8
Oggi h: 05:20 poco_nuvoloso Poco Nuvoloso 15 14 93 1018 10 SO 14.8
Oggi h: 04:50 poco_nuvoloso Poco Nuvoloso 15 14 93 1018 10 SO 14.8
Oggi h: 04:20 poco_nuvoloso Poco Nuvoloso 16 14 87 1018 10 SO 14.8
Oggi h: 03:50 molto_nuvoloso Molto Nuvoloso 16 14 87 1018 10 SO 16.7
Oggi h: 03:20 molto_nuvoloso Molto Nuvoloso 16 14 87 1018 10 SO 18.5
Oggi h: 02:50 nuvoloso Nuvoloso 16 14 87 1018 10 SO 16.7
Oggi h: 02:20 poco_nuvoloso Poco Nuvoloso 16 14 87 1018 10 SO 16.7
Oggi h: 01:50 poco_nuvoloso Poco Nuvoloso 16 14 87 1018 10 SO 16.7
Oggi h: 01:20 poco_nuvoloso Poco Nuvoloso 16 14 87 1018 10 SO 16.7
Oggi h: 00:50 sereno Sereno 16 14 87 1018 10 SO 16.7
Oggi h: 00:20 sereno Sereno 16 14 87 1018 10 SO 16.7
Ieri h: 23:50 sereno Sereno 17 14 82 1018 10 SO 16.7
Ieri h: 23:20 poco_nuvoloso Poco Nuvoloso 17 14 82 1018 10 SO 16.7
Ieri h: 22:50 poco_nuvoloso Poco Nuvoloso 17 14 82 1018 10 SO 14.8
Ieri h: 22:20 poco_nuvoloso Poco Nuvoloso 17 13 77 1017 10 O/SO 16.7
Ieri h: 21:50 poco_nuvoloso Poco Nuvoloso 18 14 77 1017 10 O/SO 18.5
Ieri h: 21:20 poco_nuvoloso Poco Nuvoloso 19 14 72 1017 10 O/SO 20.3
Ieri h: 20:50 nuvoloso_piovaschi Pioggia 19 14 72 1016 10 O/SO 20.3
Ieri h: 20:20 poco_nuvoloso Poco Nuvoloso 19 13 68 1016 10 O/SO 14.8
Ieri h: 19:50 nuvoloso Nuvoloso 19 12 63 1015 10 O 20.3
Ieri h: 19:20 nuvoloso Nuvoloso 20 12 59 1015 10 O 20.3
Ieri h: 18:50 nuvoloso Nuvoloso 21 13 60 1015 10 O 22.2
Ieri h: 18:20 poco_nuvoloso Poco Nuvoloso 20 14 68 1014 10 O/NO 22.2
Ieri h: 17:50 nuvoloso Nuvoloso 20 15 72 1014 10 O 18.5
Ieri h: 17:20 nuvoloso Nuvoloso 20 15 72 1014 10 O 27.8
Ieri h: 16:50 coperto_pioggia Pioggia 18 15 82 1014 10 O 18.5
Ieri h: 16:20 nuvoloso_piovaschi Pioggia 19 15 77 1013 4 O/SO 27.8
Ieri h: 15:50 poco_nuvoloso Poco Nuvoloso 18 15 82 1013 10 O/SO 25.9